NKS1833 KDTW-KDFW

Flight info

Callsign NKS1833
Flight time N/A
Altitude 38000
Route SNDRS3 BGHRT STL RZC FSM RRNET BRDJE5
Aircraft A20N/M-SDE2E3FGHIRWXY/LB1

Departure

Time 2026-05-06 11:50
Airport Detroit Metropolitan Wayne County Airport (KDTW)

Arrival

Time N/A
Airport Dallas Fort Worth International Airport (KDFW)
Time Latitude Longitude Altitude Speed Heading
2026-05-06 11:10 42.22518 -83.34947 652 ft 0 kts 104°
2026-05-06 11:33 42.22519 -83.34951 652 ft 3 kts 104°
2026-05-06 11:34 42.22525 -83.34985 653 ft 4 kts 105°
2026-05-06 11:34 42.22536 -83.35017 655 ft 4 kts 136°
2026-05-06 11:34 42.22556 -83.35030 653 ft 4 kts 195°
2026-05-06 11:34 42.22567 -83.35024 652 ft 1 kts 208°
2026-05-06 11:35 42.22568 -83.35024 652 ft 0 kts 208°
2026-05-06 11:38 42.22567 -83.35025 652 ft 1 kts 208°
2026-05-06 11:38 42.22554 -83.35034 654 ft 3 kts 208°
2026-05-06 11:38 42.22529 -83.35053 652 ft 5 kts 208°
2026-05-06 11:39 42.22490 -83.35081 653 ft 7 kts 208°
2026-05-06 11:39 42.22444 -83.35122 652 ft 9 kts 224°
2026-05-06 11:39 42.22404 -83.35193 652 ft 10 kts 234°
2026-05-06 11:39 42.22360 -83.35275 653 ft 11 kts 231°
2026-05-06 11:40 42.22293 -83.35342 654 ft 13 kts 214°
2026-05-06 11:40 42.22212 -83.35321 652 ft 13 kts 147°
2026-05-06 11:40 42.22129 -83.35251 652 ft 15 kts 148°
2026-05-06 11:40 42.22042 -83.35239 652 ft 13 kts 208°
2026-05-06 11:41 42.21957 -83.35301 652 ft 15 kts 208°
2026-05-06 11:41 42.21859 -83.35333 652 ft 14 kts 175°
2026-05-06 11:41 42.21826 -83.35227 652 ft 14 kts 88°
2026-05-06 11:41 42.21828 -83.35095 653 ft 15 kts 89°
2026-05-06 11:42 42.21831 -83.34953 653 ft 16 kts 88°
2026-05-06 11:42 42.21833 -83.34800 653 ft 17 kts 89°
2026-05-06 11:42 42.21836 -83.34636 653 ft 18 kts 89°
2026-05-06 11:42 42.21867 -83.34492 653 ft 17 kts 31°
2026-05-06 11:43 42.21972 -83.34415 653 ft 18 kts 28°
2026-05-06 11:43 42.22083 -83.34334 652 ft 19 kts 28°
2026-05-06 11:43 42.22201 -83.34249 652 ft 19 kts 28°
2026-05-06 11:44 42.22441 -83.34070 656 ft 20 kts 28°
2026-05-06 11:44 42.22558 -83.33985 653 ft 11 kts 28°
2026-05-06 11:44 42.22577 -83.33904 655 ft 10 kts 120°
2026-05-06 11:44 42.22541 -83.33824 658 ft 10 kts 119°
2026-05-06 11:45 42.22505 -83.33733 653 ft 12 kts 116°
2026-05-06 11:45 42.22525 -83.33669 655 ft 8 kts 29°
2026-05-06 11:45 42.22593 -83.33619 653 ft 16 kts 28°
2026-05-06 11:45 42.22714 -83.33531 653 ft 19 kts 28°
2026-05-06 11:46 42.22769 -83.33522 654 ft 7 kts 336°
2026-05-06 11:46 42.22772 -83.33524 654 ft 0 kts 332°
2026-05-06 11:47 42.22773 -83.33525 654 ft 1 kts 331°
2026-05-06 11:47 42.22786 -83.33547 652 ft 4 kts 299°
2026-05-06 11:47 42.22787 -83.33549 652 ft 0 kts 298°
2026-05-06 11:48 42.22788 -83.33551 653 ft 2 kts 298°
2026-05-06 11:48 42.22800 -83.33582 655 ft 6 kts 298°
2026-05-06 11:49 42.22797 -83.33643 654 ft 8 kts 217°
2026-05-06 11:49 42.22694 -83.33719 656 ft 42 kts 208°
2026-05-06 11:49 42.22234 -83.34055 654 ft 108 kts 208°
2026-05-06 11:49 42.21376 -83.34683 662 ft 168 kts 209°
2026-05-06 11:50 42.20345 -83.35436 1280 ft 164 kts 211°
2026-05-06 11:50 42.19322 -83.36146 1995 ft 168 kts 207°
2026-05-06 11:50 42.18224 -83.36771 2570 ft 180 kts 201°
2026-05-06 11:50 42.16932 -83.37293 2851 ft 208 kts 196°
2026-05-06 11:51 42.15454 -83.37822 3109 ft 235 kts 197°
2026-05-06 11:51 42.13781 -83.38438 3466 ft 260 kts 197°
2026-05-06 11:51 42.11997 -83.39096 4231 ft 268 kts 197°
2026-05-06 11:51 42.10194 -83.39759 5138 ft 270 kts 198°
2026-05-06 11:52 42.08385 -83.40445 6031 ft 271 kts 201°
2026-05-06 11:52 42.06714 -83.41516 6663 ft 269 kts 215°
2026-05-06 11:52 42.05168 -83.42939 6960 ft 268 kts 219°
2026-05-06 11:52 42.03670 -83.44422 6995 ft 267 kts 220°
2026-05-06 11:53 42.02174 -83.45912 6996 ft 268 kts 220°
2026-05-06 11:53 42.00672 -83.47400 6990 ft 268 kts 219°
2026-05-06 11:53 41.99165 -83.48896 6998 ft 269 kts 220°
2026-05-06 11:53 41.97681 -83.50415 7137 ft 270 kts 220°
2026-05-06 11:54 41.96187 -83.51959 7871 ft 269 kts 221°
2026-05-06 11:54 41.94728 -83.53464 9057 ft 260 kts 221°
2026-05-06 11:54 41.93308 -83.54928 10172 ft 255 kts 221°
2026-05-06 11:54 41.91876 -83.56410 10757 ft 269 kts 221°
2026-05-06 11:55 41.90338 -83.58007 11090 ft 290 kts 221°
2026-05-06 11:55 41.88684 -83.59717 11420 ft 310 kts 221°
2026-05-06 11:55 41.86921 -83.61535 11751 ft 329 kts 220°
2026-05-06 11:55 41.85060 -83.63448 12224 ft 342 kts 220°
2026-05-06 11:56 41.83158 -83.65400 12899 ft 349 kts 220°
2026-05-06 11:56 41.81217 -83.67390 13621 ft 353 kts 220°
2026-05-06 11:56 41.79267 -83.69389 14239 ft 359 kts 221°
2026-05-06 11:56 41.77278 -83.71427 14941 ft 361 kts 221°
2026-05-06 11:57 41.75278 -83.73475 15685 ft 362 kts 221°
2026-05-06 11:57 41.73267 -83.75533 16398 ft 364 kts 222°
2026-05-06 11:57 41.71247 -83.77598 17121 ft 366 kts 222°
2026-05-06 11:57 41.69139 -83.79562 17802 ft 371 kts 219°
2026-05-06 11:58 41.66933 -83.81386 18431 ft 375 kts 218°
2026-05-06 11:58 41.64686 -83.83192 18785 ft 377 kts 217°
2026-05-06 11:58 41.62436 -83.84992 18890 ft 377 kts 217°
2026-05-06 11:58 41.60187 -83.86791 18883 ft 378 kts 217°
2026-05-06 11:59 41.57931 -83.88597 18895 ft 379 kts 217°
2026-05-06 11:59 41.55691 -83.90391 18901 ft 380 kts 217°
2026-05-06 11:59 41.53389 -83.92232 18906 ft 380 kts 217°
2026-05-06 11:59 41.51161 -83.94011 18901 ft 377 kts 217°
2026-05-06 12:00 41.48919 -83.95803 18901 ft 376 kts 217°
2026-05-06 12:00 41.46675 -83.97595 18922 ft 375 kts 217°
2026-05-06 12:00 41.44430 -83.99388 18915 ft 375 kts 217°
2026-05-06 12:00 41.42185 -84.01179 18916 ft 375 kts 217°
2026-05-06 12:01 41.39956 -84.02957 18895 ft 376 kts 217°
2026-05-06 12:01 41.37697 -84.04757 18918 ft 379 kts 217°
2026-05-06 12:01 41.35425 -84.06566 18908 ft 380 kts 217°
2026-05-06 12:01 41.33156 -84.08369 18923 ft 380 kts 217°
2026-05-06 12:02 41.30880 -84.10183 18921 ft 380 kts 218°
2026-05-06 12:02 41.28701 -84.12140 18916 ft 376 kts 223°
2026-05-06 12:02 41.27377 -84.13605 18917 ft 373 kts 227°
2026-05-06 12:02 41.25607 -84.16067 18930 ft 368 kts 234°
2026-05-06 12:03 41.24113 -84.18825 18923 ft 365 kts 242°
2026-05-06 12:03 41.22930 -84.21794 18933 ft 363 kts 248°
2026-05-06 12:03 41.21661 -84.25888 18924 ft 362 kts 250°
2026-05-06 12:03 41.20742 -84.29004 18945 ft 362 kts 250°
2026-05-06 12:04 41.20124 -84.31096 18920 ft 361 kts 250°
2026-05-06 12:04 41.19202 -84.34199 18919 ft 360 kts 250°
2026-05-06 12:04 41.17981 -84.38289 18943 ft 360 kts 250°
2026-05-06 12:04 41.17357 -84.40372 18943 ft 360 kts 250°
2026-05-06 12:05 41.16440 -84.43425 18942 ft 360 kts 250°
2026-05-06 12:05 41.15512 -84.46512 18941 ft 359 kts 250°
2026-05-06 12:05 41.14584 -84.49590 18939 ft 359 kts 250°
2026-05-06 12:05 41.13651 -84.52687 19173 ft 363 kts 250°
2026-05-06 12:06 41.12715 -84.55784 19808 ft 363 kts 250°
2026-05-06 12:06 41.11770 -84.58910 20459 ft 363 kts 250°
2026-05-06 12:06 41.10834 -84.62034 21055 ft 365 kts 251°
2026-05-06 12:06 41.10056 -84.65240 21626 ft 366 kts 255°
2026-05-06 12:07 41.09456 -84.68527 22173 ft 369 kts 257°
2026-05-06 12:07 41.08895 -84.71857 22679 ft 372 kts 257°
2026-05-06 12:07 41.08335 -84.75216 23208 ft 374 kts 257°
2026-05-06 12:07 41.07771 -84.78585 23694 ft 376 kts 257°
2026-05-06 12:08 41.07199 -84.81980 24160 ft 378 kts 257°
2026-05-06 12:08 41.06624 -84.85386 24642 ft 379 kts 257°
2026-05-06 12:08 41.06045 -84.88801 25108 ft 380 kts 257°
2026-05-06 12:08 41.05463 -84.92219 25570 ft 382 kts 257°
2026-05-06 12:09 41.04885 -84.95616 26013 ft 383 kts 257°
2026-05-06 12:09 41.04295 -84.99067 26447 ft 384 kts 257°
2026-05-06 12:09 41.03696 -85.02570 26873 ft 386 kts 257°
2026-05-06 12:09 41.03103 -85.06029 27327 ft 387 kts 257°
2026-05-06 12:10 41.02513 -85.09459 27876 ft 382 kts 257°
2026-05-06 12:10 41.01931 -85.12838 28850 ft 370 kts 257°
2026-05-06 12:10 41.01365 -85.16121 29627 ft 363 kts 257°
2026-05-06 12:10 41.00805 -85.19369 30171 ft 361 kts 257°
2026-05-06 12:11 41.00246 -85.22594 30639 ft 358 kts 257°
2026-05-06 12:11 40.99693 -85.25785 31179 ft 352 kts 257°
2026-05-06 12:11 40.99151 -85.28910 31769 ft 346 kts 257°
2026-05-06 12:11 40.98604 -85.31995 32335 ft 340 kts 256°
2026-05-06 12:12 40.98056 -85.35022 32872 ft 335 kts 256°
2026-05-06 12:12 40.97522 -85.37997 33383 ft 330 kts 256°
2026-05-06 12:12 40.96999 -85.40942 33865 ft 326 kts 257°
2026-05-06 12:12 40.96487 -85.43844 34259 ft 323 kts 257°
2026-05-06 12:13 40.95979 -85.46736 34485 ft 323 kts 257°
2026-05-06 12:13 40.95469 -85.49639 34672 ft 324 kts 257°
2026-05-06 12:13 40.94957 -85.52546 34877 ft 325 kts 257°
2026-05-06 12:13 40.94443 -85.55465 35096 ft 325 kts 257°
2026-05-06 12:14 40.93931 -85.58374 35324 ft 324 kts 257°
2026-05-06 12:14 40.93417 -85.61281 35538 ft 324 kts 257°
2026-05-06 12:14 40.92904 -85.64186 35748 ft 324 kts 257°
2026-05-06 12:14 40.92397 -85.67048 35946 ft 324 kts 257°
2026-05-06 12:15 40.91883 -85.69949 36131 ft 324 kts 257°
2026-05-06 12:15 40.91369 -85.72844 36341 ft 324 kts 257°
2026-05-06 12:15 40.90853 -85.75742 36529 ft 324 kts 257°
2026-05-06 12:15 40.90338 -85.78636 36718 ft 324 kts 257°
2026-05-06 12:16 40.89820 -85.81537 36905 ft 324 kts 257°
2026-05-06 12:16 40.89303 -85.84431 37076 ft 324 kts 257°
2026-05-06 12:16 40.88785 -85.87325 37255 ft 323 kts 258°
2026-05-06 12:16 40.88346 -85.90240 37421 ft 323 kts 261°
2026-05-06 12:17 40.88012 -85.93170 37604 ft 322 kts 261°
2026-05-06 12:17 40.87698 -85.96110 37787 ft 322 kts 262°
2026-05-06 12:17 40.87388 -85.99041 37931 ft 323 kts 262°
2026-05-06 12:17 40.87076 -86.01982 37957 ft 324 kts 262°
2026-05-06 12:18 40.86448 -86.07859 37954 ft 322 kts 262°
2026-05-06 12:18 40.85817 -86.13713 37955 ft 322 kts 262°
2026-05-06 12:19 40.85182 -86.19574 37965 ft 322 kts 261°
2026-05-06 12:19 40.84543 -86.25445 37920 ft 322 kts 261°
2026-05-06 12:20 40.83907 -86.31255 37936 ft 321 kts 261°
2026-05-06 12:20 40.83264 -86.37101 37941 ft 321 kts 261°
2026-05-06 12:21 40.82620 -86.42930 37941 ft 321 kts 261°
2026-05-06 12:21 40.81971 -86.48779 37942 ft 321 kts 261°
2026-05-06 12:22 40.81320 -86.54616 37948 ft 321 kts 261°
2026-05-06 12:22 40.80665 -86.60461 37947 ft 321 kts 261°
2026-05-06 12:23 40.80008 -86.66302 37950 ft 321 kts 261°
2026-05-06 12:23 40.79348 -86.72136 37949 ft 321 kts 261°
2026-05-06 12:24 40.78684 -86.77980 37955 ft 322 kts 261°
2026-05-06 12:24 40.78018 -86.83812 37957 ft 322 kts 261°
2026-05-06 12:25 40.77349 -86.89648 37957 ft 322 kts 261°
2026-05-06 12:25 40.76681 -86.95450 37989 ft 322 kts 261°
2026-05-06 12:26 40.76006 -87.01285 37963 ft 322 kts 261°
2026-05-06 12:26 40.75325 -87.07142 37960 ft 323 kts 261°
2026-05-06 12:27 40.74642 -87.12990 37972 ft 323 kts 261°
2026-05-06 12:27 40.73955 -87.18840 37971 ft 323 kts 261°
2026-05-06 12:28 40.73266 -87.24691 37973 ft 323 kts 261°
2026-05-06 12:28 40.72574 -87.30536 37979 ft 323 kts 261°
2026-05-06 12:29 40.71878 -87.36390 37976 ft 323 kts 261°
2026-05-06 12:29 40.71178 -87.42250 37982 ft 324 kts 261°
2026-05-06 12:30 40.70475 -87.48112 37973 ft 324 kts 261°
2026-05-06 12:30 40.69773 -87.53930 37979 ft 324 kts 261°
2026-05-06 12:31 40.69065 -87.59781 37977 ft 324 kts 261°
2026-05-06 12:31 40.68352 -87.65649 37981 ft 324 kts 261°
2026-05-06 12:32 40.67638 -87.71502 38001 ft 324 kts 261°
2026-05-06 12:32 40.66919 -87.77367 37985 ft 325 kts 261°
2026-05-06 12:33 40.66195 -87.83240 37986 ft 325 kts 261°
2026-05-06 12:33 40.65354 -87.89108 37989 ft 326 kts 256°
2026-05-06 12:34 40.63608 -87.94642 37987 ft 332 kts 245°
2026-05-06 12:34 40.60792 -87.99581 37989 ft 341 kts 237°
2026-05-06 12:35 40.57613 -88.04257 37991 ft 344 kts 236°
2026-05-06 12:35 40.54408 -88.08886 37988 ft 344 kts 236°
2026-05-06 12:36 40.51204 -88.13567 37989 ft 345 kts 236°
2026-05-06 12:36 40.48002 -88.18281 37992 ft 345 kts 237°
2026-05-06 12:37 40.44804 -88.22990 37978 ft 345 kts 237°
2026-05-06 12:37 40.41617 -88.27674 37993 ft 343 kts 237°
2026-05-06 12:38 40.38439 -88.32343 37990 ft 343 kts 237°
2026-05-06 12:38 40.35260 -88.37004 37992 ft 343 kts 237°
2026-05-06 12:39 40.32073 -88.41668 37988 ft 343 kts 237°
2026-05-06 12:39 40.28888 -88.46323 37992 ft 343 kts 237°
2026-05-06 12:40 40.25698 -88.50978 37999 ft 344 kts 237°
2026-05-06 12:40 40.22497 -88.55639 37995 ft 343 kts 237°
2026-05-06 12:41 40.19331 -88.60240 37996 ft 342 kts 237°
2026-05-06 12:41 40.16144 -88.64870 37992 ft 342 kts 237°
2026-05-06 12:42 40.12957 -88.69492 37993 ft 342 kts 237°
2026-05-06 12:42 40.09768 -88.74111 37993 ft 342 kts 237°
2026-05-06 12:43 40.06575 -88.78727 37996 ft 342 kts 237°
2026-05-06 12:43 40.03381 -88.83337 37997 ft 342 kts 237°
2026-05-06 12:44 40.00190 -88.87934 37997 ft 341 kts 237°
2026-05-06 12:44 39.97039 -88.92467 37998 ft 339 kts 237°
2026-05-06 12:45 39.93877 -88.97013 37998 ft 339 kts 237°
2026-05-06 12:46 39.89117 -89.03845 37996 ft 339 kts 237°
2026-05-06 12:46 39.85945 -89.08386 37996 ft 339 kts 237°
2026-05-06 12:47 39.83310 -89.12153 38001 ft 339 kts 237°
2026-05-06 12:47 39.80129 -89.16694 37942 ft 339 kts 237°
2026-05-06 12:48 39.76962 -89.21205 38012 ft 336 kts 237°
2026-05-06 12:48 39.73809 -89.25692 38025 ft 335 kts 237°
2026-05-06 12:49 39.70659 -89.30174 38038 ft 336 kts 237°
2026-05-06 12:49 39.67504 -89.34655 38043 ft 336 kts 237°
2026-05-06 12:50 39.64364 -89.39105 38048 ft 336 kts 237°
2026-05-06 12:50 39.61204 -89.43578 38049 ft 336 kts 237°
2026-05-06 12:51 39.58042 -89.48046 38047 ft 336 kts 237°
2026-05-06 12:51 39.54886 -89.52498 38041 ft 334 kts 236°
2026-05-06 12:52 39.51751 -89.56912 38037 ft 332 kts 236°
2026-05-06 12:52 39.48634 -89.61301 38032 ft 332 kts 236°
2026-05-06 12:53 39.45500 -89.65707 38025 ft 332 kts 236°
2026-05-06 12:53 39.42361 -89.70113 38018 ft 333 kts 236°
2026-05-06 12:54 39.39220 -89.74515 38013 ft 333 kts 236°
2026-05-06 12:54 39.36077 -89.78911 38011 ft 333 kts 236°
2026-05-06 12:55 39.32939 -89.83295 38007 ft 331 kts 236°
2026-05-06 12:55 39.29837 -89.87619 38014 ft 329 kts 236°
2026-05-06 12:56 39.26728 -89.91952 38014 ft 329 kts 236°
2026-05-06 12:56 39.23610 -89.96292 38013 ft 329 kts 236°
2026-05-06 12:57 39.20491 -90.00627 38038 ft 330 kts 236°
2026-05-06 12:57 39.17369 -90.04959 38027 ft 330 kts 236°
2026-05-06 12:58 39.14240 -90.09295 38029 ft 330 kts 236°
2026-05-06 12:58 39.11107 -90.13628 38008 ft 329 kts 236°
2026-05-06 12:59 39.07992 -90.17928 38035 ft 327 kts 236°
2026-05-06 12:59 39.04888 -90.22210 38030 ft 326 kts 236°
2026-05-06 13:00 39.01791 -90.26479 38034 ft 327 kts 236°
2026-05-06 13:00 38.98706 -90.30725 38041 ft 326 kts 236°
2026-05-06 13:01 38.95606 -90.34984 38045 ft 326 kts 236°
2026-05-06 13:01 38.92500 -90.39247 38063 ft 327 kts 236°
2026-05-06 13:02 38.89391 -90.43508 38056 ft 327 kts 236°
2026-05-06 13:02 38.86294 -90.47756 38053 ft 325 kts 236°
2026-05-06 13:03 38.83301 -90.52059 38050 ft 322 kts 237°
2026-05-06 13:03 38.80364 -90.56404 38053 ft 322 kts 237°
2026-05-06 13:04 38.77428 -90.60746 38052 ft 322 kts 237°
2026-05-06 13:04 38.74506 -90.65046 38043 ft 322 kts 237°
2026-05-06 13:05 38.71558 -90.69368 38038 ft 322 kts 237°
2026-05-06 13:05 38.68605 -90.73687 38033 ft 322 kts 237°
2026-05-06 13:06 38.65653 -90.78000 38072 ft 322 kts 237°
2026-05-06 13:06 38.62702 -90.82306 38061 ft 321 kts 236°
2026-05-06 13:07 38.59760 -90.86592 38046 ft 320 kts 236°
2026-05-06 13:07 38.56819 -90.90873 38040 ft 320 kts 236°
2026-05-06 13:08 38.53877 -90.95151 38082 ft 320 kts 236°
2026-05-06 13:08 38.50931 -90.99427 38083 ft 320 kts 236°
2026-05-06 13:09 38.47986 -91.03696 38076 ft 320 kts 236°
2026-05-06 13:09 38.45037 -91.07965 38072 ft 321 kts 236°
2026-05-06 13:10 38.42085 -91.12233 38076 ft 321 kts 236°
2026-05-06 13:10 38.39132 -91.16497 38087 ft 320 kts 236°
2026-05-06 13:11 38.36201 -91.20722 38093 ft 320 kts 236°
2026-05-06 13:11 38.33249 -91.24973 38095 ft 320 kts 236°
2026-05-06 13:12 38.30295 -91.29221 38093 ft 320 kts 236°
2026-05-06 13:12 38.27339 -91.33465 38090 ft 320 kts 236°
2026-05-06 13:13 38.24380 -91.37709 38086 ft 320 kts 236°
2026-05-06 13:13 38.21422 -91.41945 38078 ft 320 kts 236°
2026-05-06 13:14 38.18463 -91.46178 38070 ft 320 kts 236°
2026-05-06 13:14 38.15498 -91.50414 38074 ft 320 kts 236°
2026-05-06 13:15 38.12544 -91.54627 38076 ft 319 kts 236°
2026-05-06 13:15 38.09606 -91.58811 38077 ft 319 kts 236°
2026-05-06 13:16 38.06657 -91.63008 38073 ft 319 kts 236°
2026-05-06 13:16 38.03700 -91.67210 38081 ft 319 kts 236°
2026-05-06 13:17 38.00745 -91.71404 38088 ft 319 kts 236°
2026-05-06 13:17 37.97786 -91.75597 38083 ft 319 kts 236°
2026-05-06 13:18 37.94827 -91.79786 38062 ft 319 kts 236°
2026-05-06 13:18 37.91866 -91.83972 38056 ft 319 kts 236°
2026-05-06 13:19 37.88894 -91.88168 38058 ft 320 kts 236°
2026-05-06 13:19 37.85925 -91.92353 38062 ft 320 kts 235°
2026-05-06 13:20 37.82953 -91.96537 38062 ft 320 kts 235°
2026-05-06 13:20 37.79978 -92.00720 38064 ft 320 kts 235°
2026-05-06 13:21 37.77025 -92.04867 38064 ft 320 kts 235°
2026-05-06 13:21 37.74046 -92.09045 38064 ft 320 kts 235°
2026-05-06 13:22 37.71068 -92.13217 38065 ft 320 kts 235°
2026-05-06 13:22 37.68081 -92.17396 38060 ft 320 kts 235°
2026-05-06 13:23 37.65094 -92.21572 38064 ft 321 kts 235°
2026-05-06 13:23 37.62098 -92.25751 38063 ft 321 kts 235°
2026-05-06 13:24 37.59105 -92.29921 38079 ft 321 kts 235°
2026-05-06 13:24 37.56105 -92.34095 38067 ft 320 kts 235°
2026-05-06 13:25 37.53132 -92.38226 38084 ft 320 kts 235°
2026-05-06 13:25 37.50145 -92.42372 38090 ft 320 kts 235°
2026-05-06 13:26 37.47151 -92.46523 38090 ft 320 kts 235°
2026-05-06 13:26 37.44156 -92.50669 38059 ft 320 kts 235°
2026-05-06 13:27 37.41148 -92.54833 38094 ft 322 kts 235°
2026-05-06 13:27 37.38132 -92.58998 38083 ft 322 kts 235°
2026-05-06 13:28 37.35126 -92.63140 38086 ft 322 kts 235°
2026-05-06 13:28 37.32106 -92.67299 38092 ft 322 kts 235°
2026-05-06 13:29 37.29081 -92.71459 38073 ft 321 kts 235°
2026-05-06 13:29 37.26064 -92.75603 38081 ft 321 kts 235°
2026-05-06 13:30 37.23051 -92.79739 38079 ft 321 kts 235°
2026-05-06 13:30 37.20031 -92.83878 38037 ft 321 kts 234°
2026-05-06 13:31 37.17006 -92.88020 38083 ft 323 kts 234°
2026-05-06 13:31 37.13964 -92.92179 38086 ft 324 kts 234°
2026-05-06 13:32 37.10920 -92.96332 38084 ft 324 kts 234°
2026-05-06 13:32 37.07895 -93.00455 38084 ft 323 kts 234°
2026-05-06 13:33 37.04844 -93.04609 38088 ft 324 kts 234°
2026-05-06 13:33 37.02288 -93.08086 38096 ft 323 kts 234°
2026-05-06 13:34 36.99262 -93.12196 38091 ft 323 kts 234°
2026-05-06 13:34 36.96215 -93.16330 38091 ft 323 kts 234°
2026-05-06 13:35 36.93164 -93.20466 38092 ft 324 kts 234°
2026-05-06 13:35 36.90101 -93.24612 38092 ft 325 kts 234°
2026-05-06 13:36 36.87033 -93.28758 38094 ft 325 kts 234°
2026-05-06 13:36 36.83983 -93.32874 38086 ft 325 kts 234°
2026-05-06 13:37 36.80913 -93.37013 38089 ft 325 kts 234°
2026-05-06 13:37 36.77839 -93.41152 38084 ft 325 kts 234°
2026-05-06 13:38 36.74761 -93.45290 38084 ft 325 kts 234°
2026-05-06 13:38 36.71704 -93.49396 38086 ft 325 kts 234°
2026-05-06 13:39 36.68611 -93.53547 38050 ft 325 kts 234°
2026-05-06 13:39 36.65540 -93.57663 38083 ft 327 kts 234°
2026-05-06 13:40 36.62439 -93.61810 38091 ft 327 kts 234°
2026-05-06 13:40 36.59332 -93.65960 38092 ft 327 kts 234°
2026-05-06 13:41 36.56225 -93.70106 38101 ft 327 kts 234°
2026-05-06 13:41 36.53125 -93.74237 38095 ft 327 kts 234°
2026-05-06 13:42 36.50014 -93.78379 38101 ft 327 kts 234°
2026-05-06 13:42 36.46907 -93.82510 38101 ft 327 kts 234°
2026-05-06 13:43 36.43809 -93.86622 38028 ft 326 kts 234°
2026-05-06 13:43 36.40725 -93.90713 38099 ft 327 kts 233°
2026-05-06 13:44 36.37618 -93.94830 38099 ft 327 kts 233°
2026-05-06 13:44 36.34511 -93.98940 38102 ft 327 kts 233°
2026-05-06 13:45 36.31393 -94.03058 38101 ft 327 kts 233°
2026-05-06 13:45 36.26482 -94.08986 38101 ft 335 kts 226°
2026-05-06 13:46 36.22329 -94.11894 38100 ft 354 kts 214°
2026-05-06 13:46 36.19932 -94.12822 38100 ft 368 kts 207°
2026-05-06 13:46 36.17417 -94.13425 38056 ft 375 kts 204°
2026-05-06 13:47 36.12215 -94.14352 38101 ft 380 kts 202°
2026-05-06 13:47 36.06946 -94.15193 38089 ft 380 kts 202°
2026-05-06 13:48 36.01714 -94.16065 38096 ft 379 kts 203°
2026-05-06 13:48 35.96491 -94.16972 38092 ft 379 kts 203°
2026-05-06 13:49 35.91302 -94.17888 38094 ft 379 kts 203°
2026-05-06 13:49 35.86057 -94.18810 38086 ft 378 kts 203°
2026-05-06 13:50 35.80847 -94.19724 38063 ft 378 kts 203°
2026-05-06 13:50 35.75673 -94.20626 38046 ft 378 kts 203°
2026-05-06 13:51 35.70463 -94.21536 38041 ft 378 kts 203°
2026-05-06 13:51 35.65262 -94.22443 38040 ft 378 kts 203°
2026-05-06 13:52 35.60060 -94.23349 38043 ft 377 kts 203°
2026-05-06 13:52 35.54856 -94.24254 38046 ft 378 kts 203°
2026-05-06 13:53 35.49652 -94.25159 38051 ft 378 kts 203°
2026-05-06 13:53 35.44446 -94.26069 38054 ft 376 kts 204°
2026-05-06 13:54 35.41925 -94.26737 38006 ft 365 kts 210°
2026-05-06 13:54 35.39565 -94.27739 38062 ft 354 kts 216°
2026-05-06 13:54 35.37401 -94.29071 38064 ft 343 kts 222°
2026-05-06 13:54 35.35469 -94.30703 38066 ft 334 kts 227°
2026-05-06 13:55 35.31943 -94.34361 38067 ft 331 kts 230°
2026-05-06 13:55 35.28546 -94.38105 38062 ft 330 kts 230°
2026-05-06 13:56 35.25134 -94.41863 38061 ft 330 kts 230°
2026-05-06 13:56 35.21699 -94.45602 38055 ft 331 kts 229°
2026-05-06 13:57 35.18249 -94.49334 38047 ft 331 kts 229°
2026-05-06 13:57 35.14802 -94.53054 38049 ft 331 kts 229°
2026-05-06 13:58 35.11342 -94.56789 38077 ft 332 kts 229°
2026-05-06 13:58 35.07877 -94.60522 38076 ft 331 kts 229°
2026-05-06 13:59 35.04444 -94.64216 38076 ft 331 kts 229°
2026-05-06 13:59 35.00985 -94.67936 38071 ft 331 kts 229°
2026-05-06 14:00 34.97526 -94.71652 38017 ft 331 kts 229°
2026-05-06 14:00 34.94071 -94.75359 38030 ft 331 kts 229°
2026-05-06 14:01 34.90615 -94.79064 38025 ft 331 kts 229°
2026-05-06 14:01 34.87173 -94.82750 38020 ft 331 kts 229°
2026-05-06 14:02 34.83707 -94.86456 38014 ft 332 kts 229°
2026-05-06 14:02 34.80206 -94.90135 38020 ft 333 kts 228°
2026-05-06 14:03 34.76670 -94.93769 38019 ft 333 kts 228°
2026-05-06 14:03 34.73125 -94.97391 38008 ft 333 kts 228°
2026-05-06 14:04 34.69576 -95.01008 38009 ft 332 kts 228°
2026-05-06 14:04 34.66052 -95.04594 38014 ft 332 kts 228°
2026-05-06 14:05 34.62504 -95.08201 37959 ft 332 kts 228°
2026-05-06 14:05 34.58951 -95.11812 37996 ft 334 kts 228°
2026-05-06 14:06 34.55376 -95.15436 38000 ft 335 kts 228°
2026-05-06 14:06 34.51794 -95.19062 37992 ft 335 kts 228°
2026-05-06 14:07 34.48215 -95.22681 37989 ft 335 kts 228°
2026-05-06 14:07 34.44635 -95.26299 38003 ft 335 kts 228°
2026-05-06 14:08 34.41052 -95.29915 37989 ft 335 kts 228°
2026-05-06 14:08 34.37496 -95.33500 37997 ft 335 kts 227°
2026-05-06 14:09 34.33910 -95.37111 37996 ft 336 kts 227°
2026-05-06 14:09 34.30309 -95.40735 37994 ft 337 kts 227°
2026-05-06 14:10 34.26697 -95.44363 38000 ft 337 kts 227°
2026-05-06 14:10 34.23090 -95.47982 38001 ft 337 kts 227°
2026-05-06 14:11 34.19481 -95.51599 38004 ft 337 kts 227°
2026-05-06 14:11 34.15871 -95.55214 38002 ft 337 kts 227°
2026-05-06 14:12 34.14086 -95.56997 37840 ft 333 kts 227°
2026-05-06 14:12 34.12334 -95.58741 37785 ft 320 kts 227°
2026-05-06 14:12 34.10646 -95.60421 37667 ft 310 kts 228°
2026-05-06 14:12 34.08994 -95.62073 37253 ft 307 kts 228°
2026-05-06 14:13 34.07348 -95.63724 36777 ft 309 kts 227°
2026-05-06 14:13 34.05680 -95.65397 36381 ft 314 kts 227°
2026-05-06 14:13 34.03992 -95.67085 35946 ft 316 kts 227°
2026-05-06 14:13 34.02288 -95.68784 35520 ft 318 kts 227°
2026-05-06 14:14 34.00578 -95.70487 35119 ft 320 kts 226°
2026-05-06 14:14 33.98853 -95.72203 34702 ft 322 kts 226°
2026-05-06 14:14 33.97120 -95.73925 34257 ft 323 kts 226°
2026-05-06 14:14 33.95404 -95.75631 33802 ft 325 kts 226°
2026-05-06 14:15 33.93656 -95.77367 33319 ft 327 kts 226°
2026-05-06 14:15 33.91893 -95.79117 32872 ft 329 kts 226°
2026-05-06 14:15 33.90115 -95.80881 32391 ft 332 kts 225°
2026-05-06 14:15 33.88322 -95.82660 31924 ft 335 kts 225°
2026-05-06 14:16 33.86510 -95.84455 31422 ft 338 kts 225°
2026-05-06 14:16 33.84685 -95.86262 30927 ft 341 kts 225°
2026-05-06 14:16 33.82847 -95.88081 30414 ft 344 kts 225°
2026-05-06 14:16 33.80986 -95.89922 29807 ft 347 kts 225°
2026-05-06 14:17 33.79107 -95.91780 29233 ft 351 kts 225°
2026-05-06 14:17 33.77213 -95.93652 28680 ft 354 kts 225°
2026-05-06 14:17 33.75302 -95.95539 28085 ft 357 kts 224°
2026-05-06 14:17 33.73380 -95.97436 27484 ft 359 kts 224°
2026-05-06 14:18 33.71442 -95.99347 26871 ft 362 kts 224°
2026-05-06 14:18 33.69491 -96.01272 26230 ft 364 kts 224°
2026-05-06 14:18 33.67554 -96.03183 25583 ft 367 kts 224°
2026-05-06 14:18 33.65572 -96.05136 24881 ft 369 kts 224°
2026-05-06 14:19 33.63581 -96.07098 24324 ft 371 kts 224°
2026-05-06 14:19 33.61585 -96.09062 23846 ft 369 kts 224°
2026-05-06 14:19 33.59607 -96.11005 23277 ft 365 kts 224°
2026-05-06 14:19 33.57658 -96.12919 22726 ft 359 kts 224°
2026-05-06 14:20 33.55763 -96.14776 22561 ft 344 kts 224°
2026-05-06 14:20 33.54552 -96.15960 22498 ft 334 kts 224°
2026-05-06 14:20 33.52795 -96.17679 22378 ft 319 kts 224°
2026-05-06 14:20 33.51116 -96.19323 22258 ft 305 kts 224°
2026-05-06 14:21 33.49486 -96.20925 22145 ft 304 kts 224°
2026-05-06 14:21 33.47843 -96.22543 21828 ft 306 kts 224°
2026-05-06 14:21 33.46196 -96.24160 21435 ft 306 kts 224°
2026-05-06 14:21 33.44600 -96.25837 21075 ft 302 kts 228°
2026-05-06 14:22 33.43173 -96.27674 20717 ft 300 kts 231°
2026-05-06 14:22 33.41804 -96.29549 20368 ft 298 kts 231°
2026-05-06 14:22 33.40453 -96.31419 20024 ft 297 kts 231°
2026-05-06 14:22 33.39103 -96.33287 19668 ft 296 kts 231°
2026-05-06 14:23 33.37759 -96.35142 19330 ft 295 kts 231°
2026-05-06 14:23 33.36417 -96.36992 19034 ft 292 kts 231°
2026-05-06 14:23 33.35114 -96.38785 18921 ft 280 kts 231°
2026-05-06 14:23 33.33847 -96.40530 18606 ft 277 kts 231°
2026-05-06 14:24 33.32588 -96.42274 18280 ft 278 kts 231°
2026-05-06 14:24 33.31332 -96.44032 17937 ft 278 kts 231°
2026-05-06 14:24 33.30080 -96.45789 17619 ft 278 kts 231°
2026-05-06 14:24 33.28826 -96.47548 17316 ft 278 kts 231°
2026-05-06 14:25 33.27567 -96.49295 17001 ft 278 kts 230°
2026-05-06 14:25 33.26259 -96.51048 16725 ft 289 kts 230°
2026-05-06 14:25 33.24887 -96.52867 16433 ft 298 kts 229°
2026-05-06 14:25 33.23490 -96.54710 16140 ft 300 kts 229°
2026-05-06 14:26 33.22110 -96.56529 15865 ft 299 kts 229°
2026-05-06 14:26 33.20720 -96.58363 15594 ft 296 kts 229°
2026-05-06 14:26 33.19361 -96.60152 15411 ft 285 kts 229°
2026-05-06 14:26 33.18044 -96.61906 15123 ft 284 kts 229°
2026-05-06 14:27 33.16741 -96.63682 14786 ft 285 kts 229°
2026-05-06 14:27 33.15439 -96.65466 14511 ft 285 kts 229°
2026-05-06 14:27 33.14134 -96.67255 14265 ft 285 kts 229°
2026-05-06 14:27 33.12834 -96.69036 14032 ft 285 kts 228°
2026-05-06 14:28 33.11536 -96.70815 13815 ft 281 kts 228°
2026-05-06 14:28 33.10278 -96.72537 13596 ft 270 kts 229°
2026-05-06 14:28 33.09065 -96.74199 13378 ft 261 kts 229°
2026-05-06 14:28 33.07880 -96.75823 13153 ft 260 kts 229°
2026-05-06 14:29 33.06688 -96.77447 12937 ft 261 kts 229°
2026-05-06 14:29 33.05498 -96.79063 12688 ft 256 kts 229°
2026-05-06 14:29 33.04335 -96.80641 12450 ft 250 kts 229°
2026-05-06 14:29 33.03195 -96.82188 12238 ft 245 kts 229°
2026-05-06 14:30 33.02096 -96.83679 12098 ft 235 kts 229°
2026-05-06 14:30 33.01045 -96.85104 12013 ft 223 kts 229°
2026-05-06 14:30 33.00041 -96.86468 12005 ft 216 kts 229°
2026-05-06 14:30 32.99062 -96.87796 12011 ft 216 kts 229°
2026-05-06 14:31 32.97991 -96.89060 12011 ft 217 kts 220°
2026-05-06 14:31 32.96687 -96.89978 11992 ft 222 kts 205°
2026-05-06 14:31 32.95166 -96.90424 11753 ft 230 kts 193°
2026-05-06 14:31 32.93556 -96.90582 11412 ft 233 kts 189°
2026-05-06 14:32 32.91933 -96.90681 11104 ft 234 kts 189°
2026-05-06 14:32 32.90304 -96.90780 10788 ft 235 kts 189°
2026-05-06 14:32 32.88688 -96.90885 10485 ft 235 kts 189°
2026-05-06 14:32 32.87052 -96.90997 10168 ft 236 kts 189°
2026-05-06 14:33 32.85404 -96.91113 9866 ft 237 kts 188°
2026-05-06 14:33 32.83734 -96.91233 9526 ft 237 kts 188°
2026-05-06 14:33 32.82094 -96.91351 9216 ft 236 kts 188°
2026-05-06 14:33 32.80452 -96.91465 8913 ft 236 kts 187°
2026-05-06 14:34 32.78821 -96.91511 8599 ft 236 kts 185°
2026-05-06 14:34 32.77180 -96.91522 8284 ft 236 kts 184°
2026-05-06 14:34 32.75560 -96.91525 7973 ft 235 kts 184°
2026-05-06 14:34 32.73925 -96.91525 7662 ft 235 kts 183°
2026-05-06 14:35 32.72293 -96.91525 7358 ft 234 kts 183°
2026-05-06 14:35 32.70661 -96.91525 7047 ft 234 kts 183°
2026-05-06 14:35 32.69038 -96.91525 6728 ft 233 kts 182°
2026-05-06 14:35 32.67423 -96.91524 6429 ft 232 kts 183°
2026-05-06 14:36 32.65813 -96.91525 6126 ft 231 kts 182°
2026-05-06 14:36 32.64211 -96.91525 5820 ft 229 kts 182°
2026-05-06 14:36 32.62625 -96.91525 5521 ft 227 kts 182°
2026-05-06 14:36 32.61049 -96.91525 5229 ft 225 kts 183°
2026-05-06 14:37 32.59486 -96.91545 4951 ft 222 kts 186°
2026-05-06 14:37 32.57991 -96.91884 4641 ft 218 kts 202°
2026-05-06 14:37 32.56705 -96.92798 4339 ft 216 kts 223°
2026-05-06 14:37 32.55803 -96.94193 4079 ft 213 kts 244°
2026-05-06 14:38 32.55408 -96.95851 3945 ft 213 kts 265°
2026-05-06 14:38 32.55542 -96.97583 3984 ft 212 kts 283°
2026-05-06 14:38 32.56128 -96.99195 4001 ft 214 kts 294°
2026-05-06 14:38 32.56865 -97.00742 4006 ft 216 kts 296°
2026-05-06 14:39 32.57630 -97.02283 4008 ft 218 kts 297°
2026-05-06 14:39 32.58444 -97.03796 4010 ft 218 kts 305°
2026-05-06 14:39 32.59567 -97.05007 4008 ft 221 kts 327°
2026-05-06 14:39 32.61013 -97.05597 4026 ft 220 kts 346°
2026-05-06 14:40 32.62483 -97.05710 4017 ft 201 kts 356°
2026-05-06 14:40 32.63805 -97.05690 3993 ft 177 kts 357°
2026-05-06 14:40 32.64970 -97.05672 3979 ft 161 kts 356°
2026-05-06 14:40 32.66083 -97.05648 4013 ft 159 kts 357°
2026-05-06 14:41 32.67173 -97.05628 4047 ft 151 kts 355°
2026-05-06 14:41 32.68183 -97.05610 4063 ft 145 kts 355°
2026-05-06 14:41 32.69189 -97.05598 4061 ft 145 kts 352°
2026-05-06 14:41 32.70186 -97.05593 4056 ft 141 kts 354°
2026-05-06 14:42 32.71162 -97.05592 3953 ft 140 kts 354°
2026-05-06 14:42 32.72124 -97.05589 3768 ft 137 kts 355°
2026-05-06 14:42 32.73056 -97.05583 3567 ft 131 kts 357°
2026-05-06 14:42 32.73958 -97.05577 3389 ft 128 kts 358°
2026-05-06 14:43 32.74844 -97.05572 3229 ft 127 kts 360°
2026-05-06 14:43 32.75721 -97.05566 3044 ft 126 kts 360°
2026-05-06 14:43 32.76598 -97.05561 2876 ft 125 kts
2026-05-06 14:43 32.77467 -97.05556 2719 ft 124 kts
2026-05-06 14:44 32.78325 -97.05552 2556 ft 124 kts
2026-05-06 14:44 32.79191 -97.05546 2388 ft 123 kts
2026-05-06 14:44 32.80047 -97.05541 2161 ft 123 kts
2026-05-06 14:45 32.81746 -97.05521 1756 ft 121 kts
2026-05-06 14:45 32.82596 -97.05518 1677 ft 125 kts 359°
2026-05-06 14:45 32.83458 -97.05503 1474 ft 122 kts
2026-05-06 14:45 32.84305 -97.05501 1349 ft 122 kts
2026-05-06 14:46 32.85152 -97.05494 1203 ft 121 kts 359°
2026-05-06 14:46 32.85996 -97.05492 998 ft 120 kts
2026-05-06 14:46 32.86830 -97.05491 855 ft 120 kts
2026-05-06 14:46 32.87651 -97.05485 685 ft 118 kts
2026-05-06 14:47 32.88446 -97.05483 603 ft 106 kts 360°